Location: Newark
(49.4794°N, 21.2167°E)
Time: 09:37:03
(UTC+00:00)

ISS - Visible Passes

Search period start: 19 October 2019 00:00
Search period end: 29 October 2019 00:00
Orbit: 411 x 421 km, 51.6° (Epoch: 19 October)

Date Brightness Start Highest point End Pass type
(mag) Time Alt. Az. Time Alt. Az. Time Alt. Az.
25 Oct -1.1 04:02:39 10° S 04:05:06 19° SE 04:07:33 10° E visible
26 Oct -0.8 03:15:13 10° SSE 03:16:43 12° SE 03:18:13 10° ESE visible
27 Oct -2.5 04:01:10 10° SW 04:04:21 38° SSE 04:07:30 10° E visible
28 Oct -1.9 03:14:43 22° S 03:15:50 26° SE 03:18:43 10° E visible
